Overview Statistics Trail Chart Weather Telemetry Raw packets
 

This is the latest recevied weather packets stored in our database for station/object KF0WJA. If no packets are shown the sender has not sent any weather packets the latest 10 day(s).

<< 12 13 14 15 16 17 18 >>
Time Temp. Humidity Pressure Rain* Wind** Luminosity Snow
1788575184 29.44° C 62% 1015.4 hPa 0 mm - 0 W/m² -
1788574880 29.44° C 62% 1015.5 hPa 0 mm - 0 W/m² -
1788574580 28.89° C 64% 1015.2 hPa 0 mm - 0 W/m² -
1788574302 29.44° C 63% 1015.2 hPa 0 mm - 0 W/m² -
1788573975 30° C 61% 1015.1 hPa 0 mm - 0 W/m² -
1788573671 30° C 60% 1014.9 hPa 0 mm - 0 W/m² -
1788573369 30° C 61% 1014.8 hPa 0 mm - 0 W/m² -
1788573063 30° C 60% 1014.6 hPa 0 mm - 0 W/m² -
1788572757 30° C 61% 1014.7 hPa 0 mm - 0 W/m² -
1788572458 30.56° C 60% 1014.5 hPa 0 mm - 0 W/m² -
1788572150 30.56° C 59% 1014.3 hPa 0 mm - 0 W/m² -
1788571845 31.11° C 58% 1014.6 hPa 0 mm - 0 W/m² -
1788571544 31.11° C 57% 1014.3 hPa 0 mm - 0 W/m² -
1788571242 31.67° C 56% 1014.5 hPa 0 mm - 0 W/m² -
1788570937 31.67° C 55% 1014.3 hPa 0 mm - 0 W/m² -
1788570636 31.67° C 55% 1014.3 hPa 0 mm - 0 W/m² -
1788570327 32.22° C 54% 1014.3 hPa 0 mm - 0 W/m² -
1788570024 32.22° C 53% 1014.4 hPa 0 mm - 0 W/m² -
1788569719 32.78° C 53% 1014.2 hPa 0 mm - 0 W/m² -
1788569415 32.78° C 52% 1014.2 hPa 0 mm - 1 W/m² -
1788569115 32.78° C 51% 1014.4 hPa 0 mm - 5 W/m² -
1788568810 33.33° C 51% 1014.1 hPa 0 mm - 10 W/m² -
1788568506 33.89° C 50% 1014.3 hPa 0 mm - 14 W/m² -
1788568201 33.89° C 49% 1014.2 hPa 0 mm - 19 W/m² -
1788567896 33.89° C 49% 1014.3 hPa 0 mm - 26 W/m² -

* Rain latest hour (hover to see other rain measurements)
** Current wind speed in m/s (hover to see current wind gust speed)